Brumowski Air Base LOXT

Flugplatz Daten

Name: Brumowski Air Base

Ident: LOXT

Lat: 48,31669998

Long: 16,11669922

Platzhöhe: 574 ft

IataCode:

City: Langenlebarn

Metar

2021/10/25 18:50
LOXT 251850Z 20006KT 20KM BKN300CI 10/01 Q1021 RMK WIND INFO EST/BKN

Taf

Gewünschte Webcam nicht vorhanden? Dann fügen Sie eine hinzu. Sie wird dann so schnell wie möglich freigeschaltet
Url: Title: